When you browse on this site, cookies collect data to enhance your experience and personalize the content and advertising you see.
Visit our Privacy Policy to learn more. By continuing to use the site, you agree to this use of cookies and data.
  • In Romania
  • List of Countries
  • For 7 days
  • Water Temperature
  • Satellite Maps
  • Weather Map
  • Weather Widgets
  • user-avatar
    Login

    Hourly Weather Førde

    Today, 23 May, Thursday

    Time Temperature Precipitation Wind Pressure Humidity
    00:00 +7°C° 0 mm 1 mps 702 mmHg 97%
    01:00 +7°C° 1.3 mm 1 mps 702 mmHg 96%
    02:00 +6°C° 1.3 mm 2 mps 702 mmHg 96%
    03:00 +6°C° 1.3 mm 2 mps 702 mmHg 95%
    04:00 +6°C° 0.9 mm 2 mps 702 mmHg 93%
    05:00 +7°C° 0.9 mm 1 mps 702 mmHg 91%
    06:00 +7°C° 0 mm 1 mps 702 mmHg 86%
    07:00 +8°C° 0 mm 1 mps 702 mmHg 78%
    08:00 +10°C° 0 mm 1 mps 702 mmHg 70%
    09:00 +10°C° 0 mm 2 mps 702 mmHg 62%
    10:00 +12°C° 0.4 mm 2 mps 702 mmHg 60%
    11:00 +11°C° 0.4 mm 3 mps 702 mmHg 57%
    12:00 +11°C° 0 mm 3 mps 702 mmHg 56%
    13:00 +11°C° 0.6 mm 3 mps 702 mmHg 58%
    14:00 +12°C° 0.6 mm 2 mps 702 mmHg 60%
    15:00 +12°C° 0.6 mm 2 mps 701 mmHg 62%
    16:00 +10°C° 0.5 mm 2 mps 701 mmHg 67%
    17:00 +10°C° 0.5 mm 1 mps 701 mmHg 72%
    18:00 +10°C° 0.5 mm 1 mps 701 mmHg 77%
    19:00 +9°C° 0.2 mm 1 mps 701 mmHg 80%
    20:00 +9°C° 0.2 mm 1 mps 701 mmHg 82%
    21:00 +8°C° 0.2 mm 1 mps 701 mmHg 85%
    22:00 +8°C° 0.1 mm 1 mps 701 mmHg 86%
    23:00 +7°C° 0.1 mm 1 mps 701 mmHg 87%

    Tomorrow, 24 May, Friday

    Time Temperature Precipitation Wind Pressure Humidity
    00:00 +7°C° 0.1 mm 1 mps 701 mmHg 87%
    01:00 +7°C° 0 mm 1 mps 701 mmHg 87%
    02:00 +7°C° 0 mm 1 mps 701 mmHg 87%
    03:00 +7°C° 0 mm 1 mps 701 mmHg 87%
    04:00 +8°C° 0 mm 1 mps 701 mmHg 83%
    05:00 +8°C° 0 mm 2 mps 701 mmHg 80%
    06:00 +9°C° 0 mm 2 mps 701 mmHg 76%
    07:00 +9°C° 0 mm 2 mps 701 mmHg 72%
    08:00 +10°C° 0 mm 2 mps 701 mmHg 69%
    09:00 +12°C° 0 mm 2 mps 702 mmHg 66%
    10:00 +11°C° 0 mm 3 mps 702 mmHg 65%
    11:00 +12°C° 0 mm 3 mps 702 mmHg 64%
    12:00 +12°C° 0 mm 3 mps 702 mmHg 64%
    13:00 +12°C° 0 mm 3 mps 702 mmHg 65%
    14:00 +11°C° 0 mm 3 mps 702 mmHg 67%
    15:00 +12°C° 0 mm 2 mps 703 mmHg 69%
    16:00 +10°C° 0 mm 2 mps 703 mmHg 73%
    17:00 +9°C° 0 mm 2 mps 703 mmHg 78%
    18:00 +9°C° 0 mm 2 mps 703 mmHg 83%
    19:00 +8°C° 0 mm 2 mps 703 mmHg 86%
    20:00 +7°C° 0 mm 2 mps 703 mmHg 89%
    21:00 +8°C° 0 mm 1 mps 703 mmHg 91%
    22:00 +8°C° 0.1 mm 1 mps 704 mmHg 92%
    23:00 +8°C° 0.1 mm 1 mps 704 mmHg 92%

    Day after tomorrow, 25 May, Saturday

    Time Temperature Precipitation Wind Pressure Humidity
    00:00 +7°C° 0.1 mm 1 mps 704 mmHg 93%
    01:00 +7°C° 0 mm 1 mps 704 mmHg 93%
    02:00 +7°C° 0 mm 1 mps 704 mmHg 94%
    03:00 +7°C° 0 mm 1 mps 704 mmHg 94%
    04:00 +7°C° 0 mm 1 mps 704 mmHg 92%
    05:00 +8°C° 0 mm 1 mps 704 mmHg 90%
    06:00 +8°C° 0 mm 1 mps 704 mmHg 88%
    07:00 +8°C° 0.1 mm 1 mps 704 mmHg 85%
    08:00 +9°C° 0.1 mm 1 mps 704 mmHg 82%
    09:00 +8°C° 0.1 mm 2 mps 704 mmHg 79%
    10:00 +8°C° 0.1 mm 2 mps 703 mmHg 80%
    11:00 +8°C° 0.1 mm 2 mps 703 mmHg 80%
    12:00 +8°C° 0.1 mm 2 mps 703 mmHg 81%
    13:00 +7°C° 0.2 mm 2 mps 703 mmHg 82%
    14:00 +7°C° 0.2 mm 2 mps 702 mmHg 83%
    15:00 +7°C° 0.2 mm 3 mps 702 mmHg 84%
    16:00 +6°C° 0.1 mm 2 mps 702 mmHg 84%
    17:00 +6°C° 0.1 mm 2 mps 701 mmHg 84%
    18:00 +5°C° 0.1 mm 2 mps 701 mmHg 84%
    19:00 +5°C° 0.1 mm 2 mps 701 mmHg 85%
    20:00 +4°C° 0.1 mm 2 mps 701 mmHg 87%
    21:00 +4°C° 0.1 mm 2 mps 700 mmHg 88%
    22:00 +3°C° 0.2 mm 2 mps 700 mmHg 88%
    23:00 +3°C° 0.2 mm 2 mps 700 mmHg 88%

    26 May, Sunday

    Time Temperature Precipitation Wind Pressure Humidity
    00:00 +3°C° 0.2 mm 2 mps 700 mmHg 87%
    01:00 +3°C° 0 mm 2 mps 700 mmHg 87%
    02:00 +1°C° 0 mm 3 mps 700 mmHg 87%
    03:00 +1°C° 0 mm 3 mps 700 mmHg 86%
    04:00 +2°C° 0 mm 3 mps 700 mmHg 81%
    05:00 +2°C° 0 mm 3 mps 700 mmHg 76%
    06:00 +3°C° 0 mm 3 mps 700 mmHg 71%
    07:00 +3°C° 0 mm 3 mps 700 mmHg 66%
    08:00 +4°C° 0 mm 3 mps 700 mmHg 62%
    09:00 +5°C° 0 mm 3 mps 700 mmHg 57%
    10:00 +5°C° 0 mm 3 mps 700 mmHg 55%
    11:00 +7°C° 0 mm 3 mps 700 mmHg 53%
    12:00 +7°C° 0 mm 4 mps 700 mmHg 51%
    13:00 +8°C° 0 mm 3 mps 700 mmHg 51%
    14:00 +8°C° 0 mm 3 mps 700 mmHg 51%
    15:00 +8°C° 0 mm 3 mps 700 mmHg 51%
    16:00 +7°C° 0 mm 3 mps 699 mmHg 53%
    17:00 +7°C° 0 mm 3 mps 699 mmHg 55%
    18:00 +5°C° 0 mm 3 mps 699 mmHg 56%
    19:00 +4°C° 0 mm 3 mps 699 mmHg 61%
    20:00 +3°C° 0 mm 3 mps 699 mmHg 66%
    21:00 +2°C° 0 mm 3 mps 699 mmHg 70%
    22:00 +1°C° 0 mm 3 mps 699 mmHg 72%
    23:00 +1°C° 0 mm 3 mps 698 mmHg 74%

    27 May, Monday

    Time Temperature Precipitation Wind Pressure Humidity
    00:00 0°C° 0 mm 3 mps 698 mmHg 75%
    01:00 0°C° 0 mm 3 mps 698 mmHg 76%
    02:00 +1°C° 0 mm 2 mps 698 mmHg 76%
    03:00 +1°C° 0 mm 2 mps 698 mmHg 76%
    04:00 +2°C° 0 mm 2 mps 698 mmHg 71%
    05:00 +2°C° 0 mm 3 mps 698 mmHg 65%
    06:00 +3°C° 0 mm 3 mps 698 mmHg 59%
    07:00 +4°C° 0 mm 3 mps 699 mmHg 54%
    08:00 +5°C° 0 mm 3 mps 699 mmHg 49%
    09:00 +7°C° 0 mm 3 mps 699 mmHg 44%
    10:00 +8°C° 0 mm 3 mps 699 mmHg 42%
    11:00 +8°C° 0 mm 3 mps 699 mmHg 41%
    12:00 +9°C° 0 mm 3 mps 699 mmHg 40%
    13:00 +9°C° 0 mm 3 mps 699 mmHg 40%
    14:00 +9°C° 0 mm 3 mps 699 mmHg 41%
    15:00 +8°C° 0 mm 4 mps 699 mmHg 42%
    16:00 +8°C° 0 mm 3 mps 699 mmHg 45%
    17:00 +7°C° 0 mm 3 mps 699 mmHg 48%
    18:00 +5°C° 0 mm 3 mps 699 mmHg 51%
    19:00 +4°C° 0 mm 3 mps 699 mmHg 57%
    20:00 +3°C° 0 mm 3 mps 699 mmHg 63%
    21:00 +3°C° 0 mm 2 mps 699 mmHg 69%
    22:00 +2°C° 0 mm 2 mps 699 mmHg 73%
    23:00 +1°C° 0 mm 2 mps 699 mmHg 77%

    28 May, Tuesday

    Time Temperature Precipitation Wind Pressure Humidity
    00:00 +1°C° 0 mm 2 mps 699 mmHg 82%
    01:00 +1°C° 0 mm 2 mps 699 mmHg 82%
    02:00 +1°C° 0 mm 2 mps 699 mmHg 83%
    03:00 +1°C° 0 mm 2 mps 700 mmHg 83%
    04:00 +1°C° 0.1 mm 2 mps 700 mmHg 77%
    05:00 +1°C° 0.1 mm 2 mps 700 mmHg 72%
    06:00 +2°C° 0.1 mm 2 mps 700 mmHg 66%
    07:00 +3°C° 0 mm 2 mps 700 mmHg 61%
    08:00 +2°C° 0 mm 3 mps 701 mmHg 57%
    09:00 +3°C° 0 mm 3 mps 701 mmHg 52%
    10:00 +3°C° 0.1 mm 3 mps 701 mmHg 51%
    11:00 +4°C° 0.1 mm 4 mps 701 mmHg 50%
    12:00 +4°C° 0.1 mm 4 mps 702 mmHg 48%
    13:00 +4°C° 0.1 mm 4 mps 702 mmHg 50%
    14:00 +3°C° 0.1 mm 4 mps 702 mmHg 52%
    15:00 +3°C° 0.1 mm 4 mps 702 mmHg 54%
    16:00 +1°C° 0.1 mm 4 mps 702 mmHg 56%
    17:00 +2°C° 0.1 mm 3 mps 702 mmHg 59%
    18:00 +1°C° 0.1 mm 3 mps 702 mmHg 61%
    19:00 +2°C° 0.1 mm 2 mps 702 mmHg 66%
    20:00 +1°C° 0.1 mm 2 mps 702 mmHg 71%
    21:00 -1°C° 0.1 mm 2 mps 702 mmHg 76%
    22:00 -1°C° 0.1 mm 2 mps 702 mmHg 77%
    23:00 -1°C° 0.1 mm 2 mps 702 mmHg 79%
    Show more